[[{"header":{"parameterUnit":"m.s-1","parameterCategory":1,"la1":30.2991,"la2":30.254,"lo1":-89.0895,"lo2":-89.0444,"dy":0.0017,"dx":0.0017,"nx":28,"ny":28,"refTime":"2024-06-10T03:00:00:Z","depth":0,"parameterNumber":2,"parameterNumberName":"U-component_of_WINDS"},"data":[0,0,0,0,0,0,0,0,0,0,0,0,0,0,0,0,0,0,0,0,0,0,0,0,0,0,0,0,0,0,0,0,0,0,0,0,0,0,0,0,0,0,0,0,0,0,0,0,0,0,0,0,0,0,0,0,0,0,0.0205,0.0206,0,0.034,0.0341,0.0343,0.0414,0.0414,0.0414,0.0414,0.0555,0.0558,0.0562,0,0,0,0,0,0,0,0,0,0,0,0,0,0.0009,0.0012,0.0205,0.0206,0.0208,0.0339,0.0341,0.0343,0.0414,0.0414,0.0414,0.0415,0.0554,0.0558,0.0562,0,0,0,0,0,0,0,0,0,0,0,0,0,0.0114,0.0013,0.0204,0.0259,0.0265,0.0339,0.0341,0.0344,0.0414,0.0414,0.0414,0.0415,0.0552,0.0557,0.0563,0.0593,0,0,0.0579,0.0582,0,0,0,0,0,0,0,0,0.0108,0.0121,0.0249,0.0256,0.0263,0.036,0.0324,0.0427,0.0414,0.0358,0.0414,0.0415,0.049,0.0501,0.0526,0.0599,0.0605,0.058,0.0583,0.0586,0.0587,0,0,0,0,0,0,0,0.01,0.0116,0.0258,0.0251,0.0259,0.0277,0.0292,0.0344,0.0421,0.0363,0.0368,0.0383,0.0494,0.052,0.0529,0.0607,0.058,0.0585,0.0588,0.059,0.0711,0.0711,0,0,0,0,0,0,0.0084,0.0109,0.0254,0.0262,0.0184,0.0281,0.0298,0.0329,0.0421,0.0435,0.0383,0.0386,0.0511,0.0523,0.0535,0.0575,0.0585,0.0591,0.0594,0.0711,0.0711,0.071,0,0,0,0,0,0,0.008,0.0096,0.0248,0.0187,0.0208,0.0284,0.0318,0.0331,0.0358,0.0436,0.045,0.0395,0.0511,0.0527,0.0577,0.058,0.0593,0.0598,0.0711,0.0711,0.0711,0.0655,0,0,0,0,0,0,0.0074,0.0094,0.0107,0.0187,0.0211,0.0288,0.0319,0.0334,0.0367,0.0372,0.0452,0.0465,0.0513,0.0569,0.0582,0.0588,0.0602,0.0711,0.0711,0.0711,0.0657,0.0653,0.065,0,0,0,0,0,0.0067,0.0086,0.0107,0.0124,0.0228,0.0288,0.0302,0.0356,0.0367,0.0379,0.0429,0.0463,0.0578,0.0573,0.0589,0.0597,0.0711,0.0711,0.0711,0.0658,0.0654,0.065,0,0,0,0,0,0,0.0006,0.0098,0.0122,0.0168,0.022,0.03,0.0318,0.0349,0.04,0.0403,0.0468,0.0485,0.0529,0.0568,0.0561,0.063,0.0648,0.0651,0.0602,0.0599,0.0595,0.0585,0.0607,0,0,0,0,0,-0.0002,0.0039,0.0118,0.0151,0.0175,0.0242,0.0271,0.0307,0.0364,0.0386,0.044,0.0494,0.0542,0.0573,0.0621,0.0663,0.0681,0.0676,0.0672,0.0669,0.067,0.0694,0.0692,0.071,0.071,0.071,0,0,-0.0018,0.0037,0.006,0.014,0.0184,0.0226,0.026,0.0303,0.0334,0.0393,0.0443,0.0484,0.0549,0.0594,0.0617,0.0628,0.0669,0.0668,0.0665,0.0669,0.0693,0.0691,0.069,0.071,0.071,0.071,0,0,-0.0027,0.002,0.0052,0.0095,0.0161,0.0205,0.0212,0.0288,0.0317,0.0368,0.0412,0.045,0.0533,0.0576,0.0609,0.0614,0.0646,0.0628,0.061,0.0631,0.063,0.0629,0.063,0.0629,0.063,0.063,0.063,0,-0.0055,0.0009,0.0065,0.0104,0.0138,0.0191,0.0224,0.0263,0.0342,0.0364,0.0375,0.0478,0.0525,0.058,0.0581,0.0607,0.0617,0.062,0.0626,0.0625,0.0625,0.0627,0.0627,0.0627,0.0627,0.0628,0.0628,0,-0.003,0.0014,0.0032,0.0105,0.0141,0.0176,0.0237,0.0267,0.0299,0.0342,0.0392,0.045,0.0511,0.0527,0.056,0.0587,0.0591,0.0613,0.0633,0.062,0.0622,0.0623,0.0623,0.0624,0.0625,0.0626,0,0,-0.0071,0.0031,0.0037,0.007,0.0145,0.018,0.0217,0.0276,0.0299,0.0351,0.0384,0.0451,0.0471,0.0508,0.0546,0.0565,0.0564,0.0585,0.0587,0.0578,0.0595,0.0578,0.0577,0.0586,0.0586,0.0586,0.0589,0,-0.0069,0.0001,0.0051,0.0101,0.0141,0.0192,0.0224,0.0274,0.0314,0.0354,0.0399,0.0444,0.0468,0.049,0.0511,0.056,0.0568,0.056,0.0617,0.0618,0.0598,0.0579,0.0562,0.0562,0.0591,0.0591,0.0591,0,-0.0056,-0.0008,0.0046,0.0115,0.0134,0.0162,0.0218,0.0256,0.0313,0.0341,0.038,0.0419,0.0461,0.0476,0.0533,0.0527,0.0553,0.058,0.0581,0.0588,0.0603,0.0585,0.0563,0.0563,0.0593,0.0593,0.0593,0,-0.0093,-0.0014,0.0028,0.0054,0.0137,0.0155,0.019,0.0248,0.0278,0.0328,0.0348,0.0402,0.0431,0.0472,0.0524,0.053,0.0576,0.0596,0.0599,0.0598,0.0607,0.0606,0.0588,0.0624,0.0624,0.0624,0.0624,0,-0.0096,-0.0066,0.0012,0.0038,0.0073,0.013,0.0163,0.0203,0.0253,0.0287,0.0334,0.0365,0.0432,0.0471,0.0512,0.0552,0.0566,0.0589,0.06,0.0585,0.0581,0.0602,0.0603,0.0624,0.0624,0.0624,0.0624,0,-0.0131,-0.0077,-0.0029,0.0044,0.0063,0.0086,0.0148,0.0175,0.0216,0.0259,0.0272,0.0338,0.0386,0.0441,0.0509,0.0536,0.0573,0.0589,0.0553,0.0559,0.0559,0.0558,0.0555,0.0556,0.0591,0.0591,0.059,0,-0.0136,-0.0112,-0.0037,-0.0012,0.0022,0.0063,0.0094,0.015,0.0181,0.0246,0.0264,0.0315,0.036,0.0434,0.0488,0.0539,0.0556,0.0551,0.0564,0.0547,0.0554,0.0552,0.0554,0.0547,0.0546,0.0546,0.0546,0,-0.0152,-0.0128,-0.0085,-0.0034,0.0002,0.0045,0.0091,0.0109,0.0174,0.0206,0.0255,0.0289,0.0356,0.0406,0.0463,0.0499,0.0533,0.0541,0.0544,0.0529,0.0507,0.0517,0.0543,0.0541,0.0541,0.0542,0.0542,0.0542,-0.0172,-0.0149,-0.0094,-0.0048,-0.0009,0.0032,0.006,0.0104,0.0145,0.0203,0.0234,0.0282,0.0336,0.0416,0.0451,0.0489,0.0501,0.0506,0.0508,0.0508,0.0503,0.05,0.05,0.05,0.0501,0.0501,0.0501,0,-0.0187,-0.0149,-0.0108,-0.0047,-0.0012,0.0015,0.0066,0.0094,0.0135,0.0183,0.0224,0.0279,0.0327,0.0384,0.0435,0.0455,0.0471,0.0466,0.0465,0.0473,0.049,0.0481,0.0452,0.0452,0.0452,0.0452,0.0452,0.0452,-0.019,-0.015,-0.012,-0.006,-0.0022,0.0024,0.005,0.0088,0.0126,0.0185,0.0224,0.026,0.0311,0.0366,0.0411,0.0426,0.0443,0.0433,0.0453,0.0468,0.0472,0.0476,0.0468,0.0436,0.0436,0.0432,0.0432,0.0432]},{"header":{"parameterUnit":"m.s-1","parameterCategory":1,"la1":30.2991,"la2":30.254,"lo1":-89.0895,"lo2":-89.0444,"dy":0.0017,"dx":0.0017,"nx":28,"ny":28,"refTime":"2024-06-10T03:00:00:Z","depth":0,"parameterNumber":3,"parameterNumberName":"V-component_of_WINDS"},"data":[0,0,0,0,0,0,0,0,0,0,0,0,0,0,0,0,0,0,0,0,0,0,0,0,0,0,0,0,0,0,0,0,0,0,0,0,0,0,0,0,0,0,0,0,0,0,0,0,0,0,0,0,0,0,0,0,0,0,2.4323,2.4323,0,2.4278,2.4278,2.4277,2.4226,2.4225,2.4224,2.4223,2.4177,2.4177,2.4176,0,0,0,0,0,0,0,0,0,0,0,0,0,2.4365,2.4364,2.4323,2.4323,2.4322,2.4278,2.4278,2.4277,2.4226,2.4225,2.4224,2.4223,2.4178,2.4177,2.4176,0,0,0,0,0,0,0,0,0,0,0,0,0,2.4336,2.4364,2.4323,2.4291,2.4288,2.4278,2.4278,2.4277,2.4226,2.4225,2.4224,2.4223,2.4178,2.4177,2.4176,2.4194,0,0,2.4174,2.4174,0,0,0,0,0,0,0,0,2.4338,2.4334,2.4297,2.4293,2.429,2.4256,2.4275,2.4249,2.4226,2.425,2.4223,2.4222,2.4205,2.4202,2.4196,2.4192,2.419,2.4174,2.4173,2.4173,2.4173,0,0,0,0,0,0,0,2.434,2.4336,2.4305,2.4296,2.4292,2.4279,2.4274,2.427,2.4234,2.4247,2.4244,2.4239,2.4203,2.4196,2.4194,2.419,2.4174,2.4173,2.4173,2.4172,2.4196,2.4197,0,0,0,0,0,0,2.4346,2.4338,2.4307,2.4304,2.4311,2.4279,2.4273,2.4268,2.4234,2.4228,2.424,2.4237,2.4198,2.4195,2.4192,2.4209,2.4173,2.4172,2.4172,2.4195,2.4197,2.4198,0,0,0,0,0,0,2.4348,2.4344,2.4309,2.432,2.4314,2.428,2.4275,2.4268,2.4262,2.4228,2.4222,2.424,2.4197,2.4193,2.4194,2.4207,2.4172,2.4171,2.4194,2.4196,2.4197,2.4244,0,0,0,0,0,0,2.4349,2.4345,2.4351,2.432,2.4314,2.4311,2.4275,2.4268,2.4261,2.4256,2.4227,2.4221,2.4196,2.4195,2.4193,2.4205,2.4171,2.4193,2.4195,2.4197,2.4241,2.4247,2.4252,0,0,0,0,0,2.4351,2.4367,2.4352,2.4349,2.4322,2.4312,2.4308,2.4279,2.4262,2.4268,2.4246,2.4222,2.4206,2.4196,2.4193,2.4205,2.4192,2.4194,2.4197,2.4238,2.4246,2.4252,0,0,0,0,0,0,2.44,2.4362,2.4345,2.4352,2.4336,2.4303,2.431,2.4288,2.4276,2.4272,2.4237,2.4231,2.4235,2.422,2.4209,2.4219,2.4195,2.4197,2.4228,2.4235,2.424,2.4242,2.417,0,0,0,0,0,2.4412,2.4408,2.4375,2.4384,2.4376,2.4345,2.434,2.4319,2.43,2.4293,2.4271,2.4254,2.4245,2.4239,2.423,2.424,2.4231,2.4246,2.4252,2.4257,2.4258,2.4259,2.4265,2.4206,2.4206,2.4206,0,0,2.4436,2.4415,2.4414,2.4393,2.4378,2.4373,2.4339,2.4336,2.4332,2.4292,2.429,2.4274,2.4252,2.4257,2.4258,2.4245,2.4273,2.426,2.4264,2.4262,2.4263,2.4268,2.4273,2.4208,2.4207,2.4207,0,0,2.4477,2.4462,2.4466,2.4452,2.4429,2.4408,2.4409,2.438,2.4367,2.4365,2.4334,2.4329,2.4315,2.43,2.4291,2.4326,2.4302,2.4324,2.4352,2.4354,2.4358,2.4362,2.4372,2.4377,2.4326,2.4326,2.4326,0,2.451,2.4501,2.4472,2.447,2.446,2.4425,2.4428,2.4416,2.4391,2.4386,2.4372,2.4352,2.4335,2.4334,2.4343,2.4338,2.4336,2.4326,2.436,2.4364,2.4367,2.4376,2.438,2.4329,2.4328,2.4328,2.4328,0,2.4541,2.4536,2.4543,2.4519,2.4511,2.4512,2.4482,2.4478,2.4458,2.4438,2.4435,2.4414,2.4398,2.4397,2.4378,2.4393,2.4386,2.4367,2.4341,2.4376,2.4383,2.4387,2.4332,2.4332,2.4331,2.433,0,0,2.461,2.457,2.4572,2.456,2.4533,2.4528,2.4528,2.4512,2.4508,2.4492,2.4489,2.4478,2.446,2.445,2.4429,2.4431,2.4457,2.4411,2.441,2.4418,2.4469,2.4482,2.4486,2.4442,2.4443,2.4444,2.447,0,2.4643,2.4639,2.4612,2.4616,2.461,2.4576,2.4575,2.4558,2.454,2.4532,2.4512,2.4503,2.4482,2.4474,2.4476,2.4454,2.4466,2.4452,2.4438,2.4437,2.4441,2.4491,2.4504,2.453,2.4473,2.4474,2.4474,0,2.4681,2.4667,2.467,2.4641,2.4638,2.4637,2.462,2.4613,2.4593,2.4579,2.4568,2.4544,2.454,2.4519,2.4513,2.4503,2.4496,2.4485,2.4485,2.448,2.4456,2.4485,2.4538,2.4541,2.4479,2.4479,2.4479,0,2.4727,2.4709,2.4708,2.4699,2.4667,2.4667,2.4654,2.4632,2.4624,2.4609,2.4603,2.4589,2.458,2.4569,2.4541,2.4529,2.4537,2.4514,2.4524,2.4525,2.4525,2.4525,2.4576,2.4526,2.4526,2.4526,2.4526,0,2.4765,2.4767,2.4728,2.4727,2.4728,2.4698,2.47,2.4683,2.4665,2.4659,2.4631,2.4626,2.4592,2.4583,2.4562,2.4558,2.4556,2.4543,2.4537,2.4544,2.4545,2.4537,2.4533,2.4527,2.4527,2.4526,2.4526,0,2.4815,2.4789,2.4785,2.4755,2.4747,2.4749,2.4723,2.472,2.4701,2.4695,2.4691,2.466,2.4649,2.4621,2.4602,2.4588,2.4589,2.458,2.4596,2.4591,2.4602,2.46,2.4647,2.465,2.4601,2.4602,2.4602,0,2.4839,2.484,2.481,2.4804,2.4792,2.4783,2.4775,2.4745,2.4738,2.4714,2.4714,2.47,2.4687,2.467,2.4645,2.463,2.4619,2.4636,2.4616,2.4622,2.4615,2.4615,2.4613,2.4639,2.464,2.4641,2.4641,0,2.4884,2.4871,2.486,2.4845,2.4835,2.4822,2.4806,2.4803,2.477,2.4763,2.475,2.4741,2.4721,2.4707,2.4688,2.4673,2.4651,2.4648,2.4649,2.4655,2.4663,2.4656,2.4605,2.4646,2.4646,2.4645,2.4645,2.4645,2.492,2.4918,2.4897,2.4885,2.4871,2.4857,2.4852,2.4833,2.4822,2.4804,2.4787,2.4776,2.4755,2.4727,2.4714,2.4704,2.4693,2.4696,2.4696,2.4696,2.4698,2.4667,2.4701,2.4701,2.4701,2.4701,2.4701,0,2.4961,2.4945,2.4935,2.4914,2.4905,2.4887,2.4869,2.4862,2.4852,2.4835,2.4823,2.4808,2.4794,2.4769,2.4752,2.4749,2.4739,2.4746,2.4744,2.4741,2.471,2.471,2.4755,2.4755,2.4755,2.4755,2.4755,2.4755,2.498,2.4976,2.4961,2.495,2.4934,2.4923,2.4914,2.4901,2.4887,2.4872,2.486,2.4844,2.4823,2.4805,2.4791,2.4784,2.4778,2.4788,2.4777,2.4748,2.4743,2.4738,2.4737,2.4787,2.4787,2.4808,2.4808,2.4808]}]]